SCP
0 0 0 0 0 0 0 2 3 3 2 4 3 3 3 2 1 1 2 1 1 1 1 1 1 0 0 0 0 0 0 0 0 0 0 0 0 0 -0 -0 -0 -0 -0
0 0 0 0 0 0 1 2 3 4 4 5 4 3 3 3 2 1 1 2 2 1 1 2 2 1 1 1 1 0 0 0 0 0 0 0 0 0 0 -0 -0 -0 -0
0 0 0 0 0 0 0 0 2 3 4 5 4 3 2 2 2 2 1 1 2 2 1 1 2 3 1 1 1 0 0 0 0 0 0 0 0 0 0 0 -0 -0 0
0 0 0 0 0 0 0 0 0 2 3 3 3 3 3 3 2 2 1 1 1 1 2 2 3 3 4 2 2 1 1 0 0 0 0 0 0 1 0 0 -0 -0 -0
0 0 0 0 0 0 0 0 0 0 0 0 1 1 2 1 1 1 1 1 1 1 1 1 2 4 3 4 4 2 0 0 1 1 1 1 1 0 0 0 -0 -0 0
0 0 0 0 0 0 0 0 0 0 0 0 0 0 0 1 1 1 1 1 1 1 1 1 1 2 2 3 2 2 1 1 1 1 1 1 0 0 0 0 0 0 0
0 0 0 0 0 0 0 0 0 0 0 0 0 0 0 0 0 0 1 1 1 0 1 1 1 1 1 1 2 2 2 1 1 2 1 2 2 0 0 0 0 0 0
0 0 0 0 0 0 0 0 0 0 0 0 0 0 0 0 0 0 0 0 0 0 0 0 0 1 1 1 1 1 2 1 1 2 2 1 0 0 0 0 0 0 0
0 0 0 0 0 0 0 0 0 0 0 0 0 0 0 0 0 0 0 0 0 0 0 0 0 0 0 1 1 1 1 1 1 1 1 0 0 0 0 0 0 0 0
0 0 0 0 0 0 0 0 0 0 0 0 0 0 0 0 0 0 0 0 0 0 0 0 0 0 0 0 0 0 0 0 0 0 0 0 0 0 0 0 0 0 0
0 0 0 0 0 0 0 0 0 0 0 0 0 0 0 0 0 0 0 0 0 0 0 0 0 0 0 0 0 0 0 0 0 0 0 0 0 0 0 0 0 0 0
-0 0 0 0 0 0 0 0 0 0 0 0 0 0 0 0 0 0 0 0 0 0 0 0 0 0 0 0 1 1 0 0 0 0 0 0 0 -0 0 1 1 0 0
0 0 0 0 0 0 0 0 0 0 0 0 0 0 0 0 0 0 0 0 0 0 0 0 0 0 0 0 0 1 1 1 0 0 0 -0 -1 -0 1 1 1 0 0
0 0 0 0 0 0 0 0 0 0 0 0 0 0 0 0 0 0 0 0 0 0 0 0 0 0 0 0 0 0 0 0 0 0 0 0 0 0 1 1 1 0 0
0 0 0 0 0 0 0 0 0 0 0 0 0 0 0 0 0 0 0 0 0 0 0 0 0 0 0 0 0 0 0 0 0 0 0 1 1 0 1 1 0 0 0
0 0 0 0 0 0 0 -0 0 0 0 0 0 0 0 0 0 0 0 0 0 0 0 0 0 0 0 0 0 0 0 0 0 0 0 1 1 1 0 1 1 0 0
0 0 0 0 0 0 0 0 0 0 0 0 0 0 0 0 0 0 0 0 0 0 0 0 0 0 0 0 0 0 0 0 0 0 0 0 0 1 1 0 0 0 0
0 0 0 0 0 0 0 0 0 0 0 0 0 0 0 0 0 0 0 0 0 0 0 0 0 0 0 0 0 0 0 0 0 0 0 0 0 1 1 0 0 0 0
0 0 0 0 0 -0 -0 -0 0 0 0 0 0 0 0 0 0 0 0 0 0 0 0 0 0 0 0 0 0 0 0 0 0 0 0 0 0 1 0 0 0 0 0
0 0 0 0 0 0 0 0 0 -0 0 0 0 0 0 0 0 0 0 0 0 0 0 0 0 0 0 0 0 0 0 -0 0 0 0 0 0 0 0 0 0 0 0
0 0 0 0 0 0 0 0 0 0 0 0 0 0 0 0 0 0 0 0 0 0 0 0 0 0 0 0 0 0 0 0 0 0 0 0 0 0 0 0 0 0 0
0 0 0 0 0 0 0 0 0 0 0 0 0 0 0 0 0 0 0 0 0 0 0 0 0 0 0 0 0 0 -0 0 0 0 0 0 0 0 0 0 0 0 0
0 -0 0 0 0 0 0 0 0 0 0 0 0 0 0 0 0 0 0 0 0 0 0 0 0 0 0 0 0 0 0 0 0 0 0 0 0 0 0 0 0 0 0
0 0 0 0 0 0 0 0 0 0 0 0 0 0 0 0 0 0 0 0 0 0 0 0 0 0 0 0 0 0 0 0 -0 0 0 0 0 0 0 0 0 0 0
0 0 0 0 0 0 0 0 0 0 -0 -0 0 0 0 0 0 0 0 0 0 0 0 0 0 0 0 0 -0 -0 -0 -0 0 0 0 0 0 0 0 0 0 0 0
0 0 0 -0 -0 0 0 0 0 -0 0 0 0 0 0 0 0 0 0 0 0 0 0 0 0 0 0 -0 -0 -0 -0 0 0 0 0 0 0 0 0 0 0 0 0
Wind_Speed_500mb
62 58 54 62 65 61 63 66 59 54 54 65 64 66 70 73 75 74 81 68 67 64 65 63 49 42 37 34 31 34 36 41 45 47 44 50 42 23 12 27 54 53 43
43 49 51 62 69 74 71 64 60 64 61 68 67 69 67 63 59 59 61 64 58 57 60 55 48 38 35 34 34 37 36 43 45 43 43 46 38 21 36 36 50 72 71
32 40 45 52 63 69 71 70 66 68 68 71 70 71 70 69 60 55 54 53 67 75 74 49 36 31 36 43 34 42 46 47 47 50 32 18 14 45 31 46 45 77 77
35 36 53 60 62 62 61 68 66 61 59 60 65 73 76 73 71 65 54 55 59 71 63 58 59 73 63 59 26 47 50 49 49 55 52 43 53 49 37 35 88 66 63
58 52 46 63 70 70 72 69 62 52 48 45 45 50 59 70 77 74 61 53 64 78 67 69 63 70 75 77 103 85 57 58 57 54 56 44 52 52 58 73 96 70 65
75 68 61 58 80 83 80 72 63 53 49 46 40 42 37 48 61 65 59 56 48 48 63 75 73 67 66 60 62 91 97 101 69 46 51 54 59 50 55 71 79 73 82
85 79 72 63 78 91 82 72 63 55 51 48 42 39 41 42 43 48 56 57 58 60 58 56 54 56 57 55 57 62 72 83 106 82 63 65 69 73 76 76 71 63 78
60 68 71 63 80 88 83 70 57 48 43 39 35 33 26 28 34 35 35 34 33 35 44 58 66 71 66 64 58 62 68 66 80 86 91 86 87 86 82 81 63 65 71
29 21 54 69 85 89 75 61 52 45 39 32 26 26 24 19 20 23 25 24 24 25 28 33 35 44 48 53 58 59 67 74 74 71 75 80 95 83 79 75 62 57 57
53 30 13 41 71 71 65 60 51 45 35 27 31 27 22 18 15 16 22 25 28 31 30 29 31 33 35 40 47 49 52 58 70 84 83 83 82 79 67 64 60 62 50
35 39 31 20 10 47 64 59 53 45 37 36 38 36 31 26 22 21 18 18 17 16 22 27 30 33 38 42 48 51 50 53 55 58 68 70 63 62 58 53 50 47 42
36 37 29 35 30 18 45 67 68 49 44 46 50 45 41 37 35 34 32 30 28 22 19 19 25 29 31 34 39 47 52 55 55 63 64 72 73 72 74 64 59 56 46
60 58 53 48 42 26 24 40 68 68 63 61 61 57 53 47 40 38 35 34 37 34 30 29 30 33 35 36 42 46 47 54 61 65 63 69 67 75 66 59 59 58 47
49 44 70 62 60 47 36 38 40 73 75 74 69 68 63 53 43 38 41 40 37 37 39 41 43 44 45 48 51 52 54 56 58 62 62 63 55 61 62 64 64 54 44
40 39 46 60 73 66 44 52 52 49 55 62 64 62 55 52 53 51 50 49 47 43 40 42 47 48 52 53 56 61 59 56 57 56 58 56 56 55 59 62 64 54 47
60 53 48 43 45 51 41 39 44 31 40 62 72 69 67 61 59 57 55 56 55 51 53 56 52 50 52 54 58 64 62 60 57 57 53 55 58 59 52 55 46 45 42
61 53 54 38 37 35 32 39 38 37 41 43 46 51 56 59 59 58 62 63 63 68 68 65 66 67 65 61 63 65 65 62 59 53 55 55 56 54 52 50 40 41 40
54 50 57 68 71 72 71 70 71 68 68 67 66 66 65 67 68 70 74 74 71 73 79 85 83 81 79 70 68 71 66 55 60 53 58 58 57 55 51 45 46 39 43
72 87 84 91 102 106 103 86 91 94 88 96 94 87 82 80 77 80 82 82 79 78 82 85 94 96 85 67 61 65 64 55 61 57 60 58 56 54 46 40 42 44 52
89 77 83 90 92 101 106 112 123 107 100 105 94 84 88 87 86 84 80 80 78 83 83 87 87 88 78 61 49 59 67 54 61 61 60 56 52 45 39 40 41 57 49
81 93 101 101 100 96 97 105 109 114 119 103 96 92 88 85 84 76 74 73 71 73 75 76 73 70 66 57 49 61 63 60 61 64 58 44 39 36 37 35 54 54 36
99 102 105 105 105 102 99 101 105 97 92 83 84 88 84 84 78 82 84 75 75 75 75 75 71 64 62 61 46 62 62 60 63 62 53 40 45 38 24 38 55 36 29
106 96 93 100 97 101 107 106 103 95 93 92 98 94 90 89 90 84 78 76 77 78 82 74 78 73 51 55 49 61 62 65 60 57 52 47 55 45 39 53 47 37 35
96 92 93 100 100 96 97 98 90 85 82 83 74 77 76 78 78 77 80 81 82 73 67 71 69 66 55 59 52 62 61 54 56 57 48 52 49 41 52 54 44 37 37
99 90 89 96 96 84 89 87 92 87 82 82 80 79 77 80 82 83 83 80 77 75 68 62 57 55 53 59 58 54 48 47 49 46 45 54 53 49 58 53 43 40 36
94 89 83 79 86 84 83 79 68 77 79 73 68 64 62 64 65 67 66 65 63 60 63 64 60 61 54 54 61 55 44 46 41 47 59 56 55 59 56 53 51 48 42
Wind_Direction_500mb
246 240 242 239 235 224 215 212 215 218 222 216 219 223 227 227 215 218 223 252 235 222 223 230 229 226 236 249 261 268 279 287 290 292 296 295 296 276 317 349 349 349 336
222 228 232 235 228 220 212 213 213 210 216 219 222 223 225 228 230 219 216 226 232 237 230 219 222 226 235 244 258 265 283 290 289 292 301 308 304 270 326 333 342 344 340
220 219 213 215 214 208 208 209 211 210 214 217 220 223 226 232 234 232 232 234 232 224 231 220 239 231 245 249 267 277 278 283 281 280 283 290 269 309 310 311 330 336 331
259 242 227 216 215 220 218 215 213 209 213 220 224 228 231 238 244 241 239 242 233 228 235 240 236 236 234 254 266 278 276 274 276 277 273 270 264 278 301 312 313 331 322
291 279 242 231 225 220 213 213 214 214 217 222 225 229 234 234 239 245 251 249 243 241 243 241 246 257 246 247 246 247 278 295 275 269 275 268 263 266 262 305 308 318 320
287 281 266 247 229 211 208 208 211 206 209 217 232 248 245 241 242 243 246 245 251 251 243 242 247 239 243 245 246 244 246 253 264 266 266 268 269 282 283 293 295 306 306
278 268 259 244 225 205 201 201 204 201 207 214 226 241 244 245 247 250 251 252 249 249 243 243 247 255 251 253 261 261 253 242 247 255 270 282 280 278 277 288 292 296 301
278 260 242 238 214 201 198 193 193 198 209 221 236 251 256 245 242 242 244 245 245 245 245 247 248 248 254 263 266 261 259 257 266 258 264 264 278 283 281 285 287 288 297
16 256 231 213 202 193 192 193 197 204 213 222 231 223 221 227 239 245 251 256 255 254 250 246 249 255 258 259 265 265 261 263 266 266 270 273 267 270 276 281 278 275 287
33 51 101 182 183 186 193 197 203 211 214 197 203 209 213 227 234 240 245 252 258 256 258 259 258 258 260 261 267 267 267 271 272 265 264 270 270 270 278 275 281 280 280
4 28 45 50 239 204 195 202 200 198 194 201 206 208 212 219 226 235 242 252 260 267 267 267 271 270 268 267 270 267 269 269 269 271 271 278 281 270 283 290 298 288 281
290 306 342 347 2 343 241 210 205 203 223 224 214 216 218 222 228 235 246 251 252 259 284 293 293 282 279 282 282 279 275 277 272 272 281 285 288 285 287 289 289 288 283
286 266 282 296 317 320 329 248 223 218 220 220 219 219 218 224 239 249 258 257 250 249 256 264 272 281 282 283 289 291 292 288 280 275 274 282 280 288 288 286 282 279 279
283 259 260 277 283 294 300 305 282 238 229 232 237 233 225 232 238 250 253 259 258 250 254 262 266 268 277 286 293 298 292 290 282 280 278 279 288 281 279 276 269 277 271
330 308 289 268 270 266 286 284 281 253 239 230 231 227 231 234 234 238 242 248 251 255 264 275 272 268 269 276 290 295 298 292 291 283 283 278 280 275 269 272 271 272 260
310 304 301 294 280 265 260 272 266 254 243 239 235 233 235 236 240 245 249 249 248 258 268 276 277 272 270 275 284 292 294 291 301 285 283 274 277 282 278 278 273 254 248
296 293 296 277 277 268 262 259 259 253 256 246 234 229 232 236 239 243 248 253 259 264 270 274 276 280 277 277 276 281 287 288 291 287 278 276 276 280 277 271 256 243 246
286 288 283 282 282 285 279 279 276 272 269 266 257 250 248 246 244 246 249 253 258 263 268 272 276 278 278 273 272 277 282 282 282 288 271 275 279 280 275 262 245 237 241
279 285 281 279 279 278 278 279 277 276 275 269 263 260 258 256 254 255 257 263 270 274 275 277 278 277 276 265 263 269 275 277 273 279 273 273 275 272 261 240 231 235 236
276 265 275 273 266 268 273 271 269 270 266 263 260 257 257 253 254 259 261 266 269 271 274 275 276 271 270 253 255 261 267 280 272 272 277 275 272 261 245 226 232 234 232
275 278 279 270 262 263 261 258 260 261 260 259 258 258 254 252 254 257 261 263 257 258 263 268 273 263 259 248 255 254 263 271 270 271 281 273 262 239 239 231 246 239 239
279 276 272 267 264 259 252 251 248 248 247 248 246 246 245 247 248 257 260 259 253 256 259 262 260 260 254 244 256 249 261 267 266 270 273 264 244 215 225 242 239 216 199
286 282 272 267 260 255 253 252 246 243 243 244 240 243 243 244 245 246 251 250 251 253 259 255 253 254 250 244 250 250 259 258 266 265 260 253 219 200 212 237 219 195 194
290 286 278 273 266 259 251 246 241 236 232 232 228 227 228 230 234 240 246 247 250 249 246 252 248 250 246 240 247 251 256 264 266 258 242 220 209 204 226 223 191 196 200
301 295 284 277 279 274 257 248 236 232 229 227 228 227 229 234 236 239 241 242 244 242 239 240 246 238 239 238 244 249 259 268 261 234 208 195 196 211 209 195 192 198 204
314 307 303 291 282 273 259 245 235 221 217 216 210 213 218 222 228 231 231 233 239 241 240 246 241 238 243 244 248 256 264 274 237 216 199 196 191 199 202 196 198 204 205
Wind_Speed_850mb
62 58 54 62 65 61 63 66 59 54 54 65 64 66 70 73 75 74 81 68 67 64 65 63 49 42 37 34 31 34 36 41 45 47 44 50 42 23 12 27 54 53 43
43 49 51 62 69 74 71 64 60 64 61 68 67 69 67 63 59 59 61 64 58 57 60 55 48 38 35 34 34 37 36 43 45 43 43 46 38 21 36 36 50 72 71
32 40 45 52 63 69 71 70 66 68 68 71 70 71 70 69 60 55 54 53 67 75 74 49 36 31 36 43 34 42 46 47 47 50 32 18 14 45 31 46 45 77 77
35 36 53 60 62 62 61 68 66 61 59 60 65 73 76 73 71 65 54 55 59 71 63 58 59 73 63 59 26 47 50 49 49 55 52 43 53 49 37 35 88 66 63
58 52 46 63 70 70 72 69 62 52 48 45 45 50 59 70 77 74 61 53 64 78 67 69 63 70 75 77 103 85 57 58 57 54 56 44 52 52 58 73 96 70 65
75 68 61 58 80 83 80 72 63 53 49 46 40 42 37 48 61 65 59 56 48 48 63 75 73 67 66 60 62 91 97 101 69 46 51 54 59 50 55 71 79 73 82
85 79 72 63 78 91 82 72 63 55 51 48 42 39 41 42 43 48 56 57 58 60 58 56 54 56 57 55 57 62 72 83 106 82 63 65 69 73 76 76 71 63 78
60 68 71 63 80 88 83 70 57 48 43 39 35 33 26 28 34 35 35 34 33 35 44 58 66 71 66 64 58 62 68 66 80 86 91 86 87 86 82 81 63 65 71
29 21 54 69 85 89 75 61 52 45 39 32 26 26 24 19 20 23 25 24 24 25 28 33 35 44 48 53 58 59 67 74 74 71 75 80 95 83 79 75 62 57 57
53 30 13 41 71 71 65 60 51 45 35 27 31 27 22 18 15 16 22 25 28 31 30 29 31 33 35 40 47 49 52 58 70 84 83 83 82 79 67 64 60 62 50
35 39 31 20 10 47 64 59 53 45 37 36 38 36 31 26 22 21 18 18 17 16 22 27 30 33 38 42 48 51 50 53 55 58 68 70 63 62 58 53 50 47 42
36 37 29 35 30 18 45 67 68 49 44 46 50 45 41 37 35 34 32 30 28 22 19 19 25 29 31 34 39 47 52 55 55 63 64 72 73 72 74 64 59 56 46
60 58 53 48 42 26 24 40 68 68 63 61 61 57 53 47 40 38 35 34 37 34 30 29 30 33 35 36 42 46 47 54 61 65 63 69 67 75 66 59 59 58 47
49 44 70 62 60 47 36 38 40 73 75 74 69 68 63 53 43 38 41 40 37 37 39 41 43 44 45 48 51 52 54 56 58 62 62 63 55 61 62 64 64 54 44
40 39 46 60 73 66 44 52 52 49 55 62 64 62 55 52 53 51 50 49 47 43 40 42 47 48 52 53 56 61 59 56 57 56 58 56 56 55 59 62 64 54 47
60 53 48 43 45 51 41 39 44 31 40 62 72 69 67 61 59 57 55 56 55 51 53 56 52 50 52 54 58 64 62 60 57 57 53 55 58 59 52 55 46 45 42
61 53 54 38 37 35 32 39 38 37 41 43 46 51 56 59 59 58 62 63 63 68 68 65 66 67 65 61 63 65 65 62 59 53 55 55 56 54 52 50 40 41 40
54 50 57 68 71 72 71 70 71 68 68 67 66 66 65 67 68 70 74 74 71 73 79 85 83 81 79 70 68 71 66 55 60 53 58 58 57 55 51 45 46 39 43
72 87 84 91 102 106 103 86 91 94 88 96 94 87 82 80 77 80 82 82 79 78 82 85 94 96 85 67 61 65 64 55 61 57 60 58 56 54 46 40 42 44 52
89 77 83 90 92 101 106 112 123 107 100 105 94 84 88 87 86 84 80 80 78 83 83 87 87 88 78 61 49 59 67 54 61 61 60 56 52 45 39 40 41 57 49
81 93 101 101 100 96 97 105 109 114 119 103 96 92 88 85 84 76 74 73 71 73 75 76 73 70 66 57 49 61 63 60 61 64 58 44 39 36 37 35 54 54 36
99 102 105 105 105 102 99 101 105 97 92 83 84 88 84 84 78 82 84 75 75 75 75 75 71 64 62 61 46 62 62 60 63 62 53 40 45 38 24 38 55 36 29
106 96 93 100 97 101 107 106 103 95 93 92 98 94 90 89 90 84 78 76 77 78 82 74 78 73 51 55 49 61 62 65 60 57 52 47 55 45 39 53 47 37 35
96 92 93 100 100 96 97 98 90 85 82 83 74 77 76 78 78 77 80 81 82 73 67 71 69 66 55 59 52 62 61 54 56 57 48 52 49 41 52 54 44 37 37
99 90 89 96 96 84 89 87 92 87 82 82 80 79 77 80 82 83 83 80 77 75 68 62 57 55 53 59 58 54 48 47 49 46 45 54 53 49 58 53 43 40 36
94 89 83 79 86 84 83 79 68 77 79 73 68 64 62 64 65 67 66 65 63 60 63 64 60 61 54 54 61 55 44 46 41 47 59 56 55 59 56 53 51 48 42
Wind_Direction_850mb
246 240 242 239 235 224 215 212 215 218 222 216 219 223 227 227 215 218 223 252 235 222 223 230 229 226 236 249 261 268 279 287 290 292 296 295 296 276 317 349 349 349 336
222 228 232 235 228 220 212 213 213 210 216 219 222 223 225 228 230 219 216 226 232 237 230 219 222 226 235 244 258 265 283 290 289 292 301 308 304 270 326 333 342 344 340
220 219 213 215 214 208 208 209 211 210 214 217 220 223 226 232 234 232 232 234 232 224 231 220 239 231 245 249 267 277 278 283 281 280 283 290 269 309 310 311 330 336 331
259 242 227 216 215 220 218 215 213 209 213 220 224 228 231 238 244 241 239 242 233 228 235 240 236 236 234 254 266 278 276 274 276 277 273 270 264 278 301 312 313 331 322
291 279 242 231 225 220 213 213 214 214 217 222 225 229 234 234 239 245 251 249 243 241 243 241 246 257 246 247 246 247 278 295 275 269 275 268 263 266 262 305 308 318 320
287 281 266 247 229 211 208 208 211 206 209 217 232 248 245 241 242 243 246 245 251 251 243 242 247 239 243 245 246 244 246 253 264 266 266 268 269 282 283 293 295 306 306
278 268 259 244 225 205 201 201 204 201 207 214 226 241 244 245 247 250 251 252 249 249 243 243 247 255 251 253 261 261 253 242 247 255 270 282 280 278 277 288 292 296 301
278 260 242 238 214 201 198 193 193 198 209 221 236 251 256 245 242 242 244 245 245 245 245 247 248 248 254 263 266 261 259 257 266 258 264 264 278 283 281 285 287 288 297
16 256 231 213 202 193 192 193 197 204 213 222 231 223 221 227 239 245 251 256 255 254 250 246 249 255 258 259 265 265 261 263 266 266 270 273 267 270 276 281 278 275 287
33 51 101 182 183 186 193 197 203 211 214 197 203 209 213 227 234 240 245 252 258 256 258 259 258 258 260 261 267 267 267 271 272 265 264 270 270 270 278 275 281 280 280
4 28 45 50 239 204 195 202 200 198 194 201 206 208 212 219 226 235 242 252 260 267 267 267 271 270 268 267 270 267 269 269 269 271 271 278 281 270 283 290 298 288 281
290 306 342 347 2 343 241 210 205 203 223 224 214 216 218 222 228 235 246 251 252 259 284 293 293 282 279 282 282 279 275 277 272 272 281 285 288 285 287 289 289 288 283
286 266 282 296 317 320 329 248 223 218 220 220 219 219 218 224 239 249 258 257 250 249 256 264 272 281 282 283 289 291 292 288 280 275 274 282 280 288 288 286 282 279 279
283 259 260 277 283 294 300 305 282 238 229 232 237 233 225 232 238 250 253 259 258 250 254 262 266 268 277 286 293 298 292 290 282 280 278 279 288 281 279 276 269 277 271
330 308 289 268 270 266 286 284 281 253 239 230 231 227 231 234 234 238 242 248 251 255 264 275 272 268 269 276 290 295 298 292 291 283 283 278 280 275 269 272 271 272 260
310 304 301 294 280 265 260 272 266 254 243 239 235 233 235 236 240 245 249 249 248 258 268 276 277 272 270 275 284 292 294 291 301 285 283 274 277 282 278 278 273 254 248
296 293 296 277 277 268 262 259 259 253 256 246 234 229 232 236 239 243 248 253 259 264 270 274 276 280 277 277 276 281 287 288 291 287 278 276 276 280 277 271 256 243 246
286 288 283 282 282 285 279 279 276 272 269 266 257 250 248 246 244 246 249 253 258 263 268 272 276 278 278 273 272 277 282 282 282 288 271 275 279 280 275 262 245 237 241
279 285 281 279 279 278 278 279 277 276 275 269 263 260 258 256 254 255 257 263 270 274 275 277 278 277 276 265 263 269 275 277 273 279 273 273 275 272 261 240 231 235 236
276 265 275 273 266 268 273 271 269 270 266 263 260 257 257 253 254 259 261 266 269 271 274 275 276 271 270 253 255 261 267 280 272 272 277 275 272 261 245 226 232 234 232
275 278 279 270 262 263 261 258 260 261 260 259 258 258 254 252 254 257 261 263 257 258 263 268 273 263 259 248 255 254 263 271 270 271 281 273 262 239 239 231 246 239 239
279 276 272 267 264 259 252 251 248 248 247 248 246 246 245 247 248 257 260 259 253 256 259 262 260 260 254 244 256 249 261 267 266 270 273 264 244 215 225 242 239 216 199
286 282 272 267 260 255 253 252 246 243 243 244 240 243 243 244 245 246 251 250 251 253 259 255 253 254 250 244 250 250 259 258 266 265 260 253 219 200 212 237 219 195 194
290 286 278 273 266 259 251 246 241 236 232 232 228 227 228 230 234 240 246 247 250 249 246 252 248 250 246 240 247 251 256 264 266 258 242 220 209 204 226 223 191 196 200
301 295 284 277 279 274 257 248 236 232 229 227 228 227 229 234 236 239 241 242 244 242 239 240 246 238 239 238 244 249 259 268 261 234 208 195 196 211 209 195 192 198 204
314 307 303 291 282 273 259 245 235 221 217 216 210 213 218 222 228 231 231 233 239 241 240 246 241 238 243 244 248 256 264 274 237 216 199 196 191 199 202 196 198 204 205